Year,Month,Day,Hour,Minute,Value (Times are PST for temperature in C)
2013,09,11,00,00,14.30
2013,09,11,00,01,14.30
2013,09,11,00,02,14.30
2013,09,11,00,03,14.30
2013,09,11,00,04,14.40
2013,09,11,00,05,14.40
2013,09,11,00,06,14.40
2013,09,11,00,07,14.40
2013,09,11,00,08,14.40
2013,09,11,00,09,14.40
2013,09,11,00,10,14.40
2013,09,11,00,11,14.50
2013,09,11,00,12,14.50
2013,09,11,00,13,14.50
2013,09,11,00,14,14.50
2013,09,11,00,15,14.50
2013,09,11,00,16,14.50
2013,09,11,00,17,14.50
2013,09,11,00,18,14.50
2013,09,11,00,19,14.50
2013,09,11,00,20,14.50
2013,09,11,00,21,14.50
2013,09,11,00,22,14.50
2013,09,11,00,23,14.50
2013,09,11,00,24,14.50
2013,09,11,00,25,14.50
2013,09,11,00,26,14.40
2013,09,11,00,27,14.40
2013,09,11,00,28,14.40
2013,09,11,00,29,14.40
2013,09,11,00,30,14.40
2013,09,11,00,31,14.40
2013,09,11,00,32,14.40
2013,09,11,00,33,14.40
2013,09,11,00,34,14.40
2013,09,11,00,35,14.40
2013,09,11,00,36,14.30
2013,09,11,00,37,14.30
2013,09,11,00,38,14.30
2013,09,11,00,39,14.30
2013,09,11,00,40,14.30
2013,09,11,00,41,14.30
2013,09,11,00,42,14.30
2013,09,11,00,43,14.30
2013,09,11,00,44,14.30
2013,09,11,00,45,14.30
2013,09,11,00,46,14.30
2013,09,11,00,47,14.30
2013,09,11,00,48,14.30
2013,09,11,00,49,14.30
2013,09,11,00,50,14.30
2013,09,11,00,51,14.30
2013,09,11,00,52,14.30
2013,09,11,00,53,14.30
2013,09,11,00,54,14.30
2013,09,11,00,55,14.30
2013,09,11,00,56,14.30
2013,09,11,00,57,14.30
2013,09,11,00,58,14.30
2013,09,11,00,59,14.20
2013,09,11,01,00,14.20
2013,09,11,01,01,14.20
2013,09,11,01,02,14.20
2013,09,11,01,03,14.20
2013,09,11,01,04,14.20
2013,09,11,01,05,14.20
2013,09,11,01,06,14.10
2013,09,11,01,07,14.10
2013,09,11,01,08,14.10
2013,09,11,01,09,14.10
2013,09,11,01,10,14.10
2013,09,11,01,11,14.10
2013,09,11,01,12,14.10
2013,09,11,01,13,14.10
2013,09,11,01,14,14.10
2013,09,11,01,15,14.10
2013,09,11,01,16,14.00
2013,09,11,01,17,14.00
2013,09,11,01,18,14.00
2013,09,11,01,19,14.00
2013,09,11,01,20,14.00
2013,09,11,01,21,14.00
2013,09,11,01,22,14.00
2013,09,11,01,23,13.90
2013,09,11,01,24,14.00
2013,09,11,01,25,13.90
2013,09,11,01,26,13.90
2013,09,11,01,27,13.90
2013,09,11,01,28,13.90
2013,09,11,01,29,13.90
2013,09,11,01,30,13.90
2013,09,11,01,31,13.90
2013,09,11,01,32,13.90
2013,09,11,01,33,13.90
2013,09,11,01,34,13.90
2013,09,11,01,35,13.90
2013,09,11,01,36,13.90
2013,09,11,01,37,13.90
2013,09,11,01,38,13.90
2013,09,11,01,39,13.90
2013,09,11,01,40,13.90
2013,09,11,01,41,14.00
2013,09,11,01,42,14.00
2013,09,11,01,43,14.00
2013,09,11,01,44,14.00
2013,09,11,01,45,14.00
2013,09,11,01,46,14.10
2013,09,11,01,47,14.10
2013,09,11,01,48,14.10
2013,09,11,01,49,14.10
2013,09,11,01,50,14.10
2013,09,11,01,51,14.20
2013,09,11,01,52,14.20
2013,09,11,01,53,14.20
2013,09,11,01,54,14.20
2013,09,11,01,55,14.20
2013,09,11,01,56,14.30
2013,09,11,01,57,14.30
2013,09,11,01,58,14.30
2013,09,11,01,59,14.40
2013,09,11,02,00,14.40
2013,09,11,02,01,14.40
2013,09,11,02,02,14.50
2013,09,11,02,03,14.50
2013,09,11,02,04,14.50
2013,09,11,02,05,14.60
2013,09,11,02,06,14.60
2013,09,11,02,07,14.60
2013,09,11,02,08,14.60
2013,09,11,02,09,14.60
2013,09,11,02,10,14.50
2013,09,11,02,11,14.50
2013,09,11,02,12,14.50
2013,09,11,02,13,14.50
2013,09,11,02,14,14.50
2013,09,11,02,15,14.50
2013,09,11,02,16,14.40
2013,09,11,02,17,14.40
2013,09,11,02,18,14.40
2013,09,11,02,19,14.40
2013,09,11,02,20,14.40
2013,09,11,02,21,14.40
2013,09,11,02,22,14.40
2013,09,11,02,23,14.40
2013,09,11,02,24,14.40
2013,09,11,02,25,14.40
2013,09,11,02,26,14.40
2013,09,11,02,27,14.30
2013,09,11,02,28,14.30
2013,09,11,02,29,14.30
2013,09,11,02,30,14.30
2013,09,11,02,31,14.30
2013,09,11,02,32,14.30
2013,09,11,02,33,14.20
2013,09,11,02,34,14.20
2013,09,11,02,35,14.20
2013,09,11,02,36,14.20
2013,09,11,02,37,14.20
2013,09,11,02,38,14.20
2013,09,11,02,39,14.20
2013,09,11,02,40,14.20
2013,09,11,02,41,14.20
2013,09,11,02,42,14.20
2013,09,11,02,43,14.10
2013,09,11,02,44,14.10
2013,09,11,02,45,14.10
2013,09,11,02,46,14.10
2013,09,11,02,47,14.10
2013,09,11,02,48,14.10
2013,09,11,02,49,14.10
2013,09,11,02,50,14.10
2013,09,11,02,51,14.10
2013,09,11,02,52,14.10
2013,09,11,02,53,14.10
2013,09,11,02,54,14.00
2013,09,11,02,55,14.00
2013,09,11,02,56,14.00
2013,09,11,02,57,14.00
2013,09,11,02,58,14.00
2013,09,11,02,59,13.90
2013,09,11,03,00,13.90
2013,09,11,03,01,13.90
2013,09,11,03,02,13.90
2013,09,11,03,03,13.90
2013,09,11,03,04,13.90
2013,09,11,03,05,13.90
2013,09,11,03,06,13.90
2013,09,11,03,07,13.90
2013,09,11,03,08,13.90
2013,09,11,03,09,13.90
2013,09,11,03,10,13.90
2013,09,11,03,11,13.90
2013,09,11,03,12,13.80
2013,09,11,03,13,13.80
2013,09,11,03,14,13.80
2013,09,11,03,15,13.80
2013,09,11,03,16,13.80
2013,09,11,03,17,13.80
2013,09,11,03,18,13.80
2013,09,11,03,19,13.80
2013,09,11,03,20,13.80
2013,09,11,03,21,13.80
2013,09,11,03,22,13.80
2013,09,11,03,23,13.80
2013,09,11,03,24,13.80
2013,09,11,03,25,13.80
2013,09,11,03,26,13.80
2013,09,11,03,27,13.80
2013,09,11,03,28,13.80
2013,09,11,03,29,13.80
2013,09,11,03,30,13.80
2013,09,11,03,31,13.80
2013,09,11,03,32,13.80
2013,09,11,03,33,13.80
2013,09,11,03,34,13.80
2013,09,11,03,35,13.80
2013,09,11,03,36,13.80
2013,09,11,03,37,13.90
2013,09,11,03,38,13.90
2013,09,11,03,39,13.90
2013,09,11,03,40,13.90
2013,09,11,03,41,13.90
2013,09,11,03,42,14.00
2013,09,11,03,43,14.00
2013,09,11,03,44,14.00
2013,09,11,03,45,14.00
2013,09,11,03,46,14.10
2013,09,11,03,47,14.10
2013,09,11,03,48,14.10
2013,09,11,03,49,14.00
2013,09,11,03,50,14.00
2013,09,11,03,51,14.00
2013,09,11,03,52,14.00
2013,09,11,03,53,14.00
2013,09,11,03,54,13.90
2013,09,11,03,55,13.90
2013,09,11,03,56,13.90
2013,09,11,03,57,13.90
2013,09,11,03,58,13.90
2013,09,11,03,59,13.80
2013,09,11,04,00,13.80
2013,09,11,04,01,13.80
2013,09,11,04,02,13.80
2013,09,11,04,03,13.80
2013,09,11,04,04,13.80
2013,09,11,04,05,13.80
2013,09,11,04,06,13.80
2013,09,11,04,07,13.80
2013,09,11,04,08,13.80
2013,09,11,04,09,13.80
2013,09,11,04,10,13.80
2013,09,11,04,11,13.80
2013,09,11,04,12,13.80
2013,09,11,04,13,13.80
2013,09,11,04,14,13.80
2013,09,11,04,15,13.80
2013,09,11,04,16,13.90
2013,09,11,04,17,13.90
2013,09,11,04,18,14.00
2013,09,11,04,19,14.00
2013,09,11,04,20,14.00
2013,09,11,04,21,14.10
2013,09,11,04,22,14.20
2013,09,11,04,23,14.30
2013,09,11,04,24,14.40
2013,09,11,04,25,14.50
2013,09,11,04,26,14.60
2013,09,11,04,27,14.70
2013,09,11,04,28,14.80
2013,09,11,04,29,14.90
2013,09,11,04,30,15.00
2013,09,11,04,31,15.00
2013,09,11,04,32,15.10
2013,09,11,04,33,15.30
2013,09,11,04,34,15.40
2013,09,11,04,35,15.50
2013,09,11,04,36,15.50
2013,09,11,04,37,15.60
2013,09,11,04,38,15.60
2013,09,11,04,39,15.60
2013,09,11,04,40,15.60
2013,09,11,04,41,15.60
2013,09,11,04,42,15.60
2013,09,11,04,43,15.60
2013,09,11,04,44,15.60
2013,09,11,04,45,15.60
2013,09,11,04,46,15.60
2013,09,11,04,47,15.60
2013,09,11,04,48,15.60
2013,09,11,04,49,15.60
2013,09,11,04,50,15.70
2013,09,11,04,51,15.70
2013,09,11,04,52,15.60
2013,09,11,04,53,15.60
2013,09,11,04,54,15.60
2013,09,11,04,55,15.60
2013,09,11,04,56,15.60
2013,09,11,04,57,15.60
2013,09,11,04,58,15.50
2013,09,11,04,59,15.50
2013,09,11,05,00,15.50
2013,09,11,05,01,15.50
2013,09,11,05,02,15.50
2013,09,11,05,03,15.50
2013,09,11,05,04,15.50
2013,09,11,05,05,15.50
2013,09,11,05,06,15.50
2013,09,11,05,07,15.50
2013,09,11,05,08,15.60
2013,09,11,05,09,15.70
2013,09,11,05,10,15.80
2013,09,11,05,11,15.80
2013,09,11,05,12,15.80
2013,09,11,05,13,15.80
2013,09,11,05,14,15.80
2013,09,11,05,15,15.90
2013,09,11,05,16,15.80
2013,09,11,05,17,15.90
2013,09,11,05,18,15.90
2013,09,11,05,19,15.90
2013,09,11,05,20,15.90
2013,09,11,05,21,15.80
2013,09,11,05,22,15.80
2013,09,11,05,23,15.70
2013,09,11,05,24,15.70
2013,09,11,05,25,15.70
2013,09,11,05,26,15.70
2013,09,11,05,27,15.70
2013,09,11,05,28,15.80
2013,09,11,05,29,15.80
2013,09,11,05,30,15.80
2013,09,11,05,31,15.80
2013,09,11,05,32,15.80
2013,09,11,05,33,15.80
2013,09,11,05,34,15.70
2013,09,11,05,35,15.70
2013,09,11,05,36,15.70
2013,09,11,05,37,15.60
2013,09,11,05,38,15.60
2013,09,11,05,39,15.60
2013,09,11,05,40,15.60
2013,09,11,05,41,15.60
2013,09,11,05,42,15.60
2013,09,11,05,43,15.50
2013,09,11,05,44,15.50
2013,09,11,05,45,15.50
2013,09,11,05,46,15.40
2013,09,11,05,47,15.40
2013,09,11,05,48,15.40
2013,09,11,05,49,15.40
2013,09,11,05,50,15.30
2013,09,11,05,51,15.30
2013,09,11,05,52,15.30
2013,09,11,05,53,15.30
2013,09,11,05,54,15.30
2013,09,11,05,55,15.30
2013,09,11,05,56,15.20
2013,09,11,05,57,15.20
2013,09,11,05,58,15.10
2013,09,11,05,59,15.10
2013,09,11,06,00,15.00
2013,09,11,06,01,15.00
2013,09,11,06,02,15.00
2013,09,11,06,03,15.00
2013,09,11,06,04,15.00
2013,09,11,06,05,15.00
2013,09,11,06,06,15.00
2013,09,11,06,07,15.00
2013,09,11,06,08,15.00
2013,09,11,06,09,15.00
2013,09,11,06,10,14.90
2013,09,11,06,11,14.90
2013,09,11,06,12,14.80
2013,09,11,06,13,14.80
2013,09,11,06,14,14.80
2013,09,11,06,15,14.80
2013,09,11,06,16,14.80
2013,09,11,06,17,14.80
2013,09,11,06,18,14.90
2013,09,11,06,19,14.90
2013,09,11,06,20,15.00
2013,09,11,06,21,15.00
2013,09,11,06,22,15.00
2013,09,11,06,23,15.00
2013,09,11,06,24,15.00
2013,09,11,06,25,15.00
2013,09,11,06,26,15.00
2013,09,11,06,27,15.00
2013,09,11,06,28,15.00
2013,09,11,06,29,15.00
2013,09,11,06,30,15.00
2013,09,11,06,31,15.00
2013,09,11,06,32,15.00
2013,09,11,06,33,15.00
2013,09,11,06,34,15.00
2013,09,11,06,35,15.00
2013,09,11,06,36,15.00
2013,09,11,06,37,15.00
2013,09,11,06,38,15.00
2013,09,11,06,39,15.00
2013,09,11,06,40,15.10
2013,09,11,06,41,15.10
2013,09,11,06,42,15.10
2013,09,11,06,43,15.20
2013,09,11,06,44,15.20
2013,09,11,06,45,15.20
2013,09,11,06,46,15.20
2013,09,11,06,47,15.20
2013,09,11,06,48,15.20
2013,09,11,06,49,15.10
2013,09,11,06,50,15.10
2013,09,11,06,51,15.10
2013,09,11,06,52,15.00
2013,09,11,06,53,15.00
2013,09,11,06,54,15.00
2013,09,11,06,55,15.00
2013,09,11,06,56,15.00
2013,09,11,06,57,15.00
2013,09,11,06,58,15.00
2013,09,11,06,59,15.00
2013,09,11,07,00,15.00
2013,09,11,07,01,15.00
2013,09,11,07,02,15.00
2013,09,11,07,03,15.00
2013,09,11,07,04,15.00
2013,09,11,07,05,15.00
2013,09,11,07,06,15.00
2013,09,11,07,07,15.00
2013,09,11,07,08,15.00
2013,09,11,07,09,15.00
2013,09,11,07,10,15.00
2013,09,11,07,11,15.00
2013,09,11,07,12,15.00
2013,09,11,07,13,15.00
2013,09,11,07,14,15.00
2013,09,11,07,15,15.00
2013,09,11,07,16,15.00
2013,09,11,07,17,15.00
2013,09,11,07,18,15.00
2013,09,11,07,19,15.00
2013,09,11,07,20,15.00
2013,09,11,07,21,15.00
2013,09,11,07,22,15.00
2013,09,11,07,23,15.00
2013,09,11,07,24,15.00
2013,09,11,07,25,15.00
2013,09,11,07,26,15.00
2013,09,11,07,27,15.00
2013,09,11,07,28,15.00
2013,09,11,07,29,15.00
2013,09,11,07,30,14.90
2013,09,11,07,31,14.90
2013,09,11,07,32,14.90
2013,09,11,07,33,14.80
2013,09,11,07,34,14.80
2013,09,11,07,35,14.80
2013,09,11,07,36,14.80
2013,09,11,07,37,14.70
2013,09,11,07,38,14.70
2013,09,11,07,39,14.70
2013,09,11,07,40,14.70
2013,09,11,07,41,14.70
2013,09,11,07,42,14.70
2013,09,11,07,43,14.70
2013,09,11,07,44,14.70
2013,09,11,07,45,14.70
2013,09,11,07,46,14.70
2013,09,11,07,47,14.70
2013,09,11,07,48,14.70
2013,09,11,07,49,14.70
2013,09,11,07,50,14.70
2013,09,11,07,51,14.70
2013,09,11,07,52,14.70
2013,09,11,07,53,14.70
2013,09,11,07,54,14.70
2013,09,11,07,55,14.70
2013,09,11,07,56,14.70
2013,09,11,07,57,14.80
2013,09,11,07,58,14.80
2013,09,11,07,59,14.80
2013,09,11,08,00,14.90
2013,09,11,08,01,15.00
2013,09,11,08,02,15.00
2013,09,11,08,03,15.00
2013,09,11,08,04,15.00
2013,09,11,08,05,15.10
2013,09,11,08,06,15.20
2013,09,11,08,07,15.30
2013,09,11,08,08,15.30
2013,09,11,08,09,15.40
2013,09,11,08,10,15.50
2013,09,11,08,11,15.60
2013,09,11,08,12,15.60
2013,09,11,08,13,15.60
2013,09,11,08,14,15.70
2013,09,11,08,15,15.80
2013,09,11,08,16,16.00
2013,09,11,08,17,16.10
2013,09,11,08,18,16.40
2013,09,11,08,19,16.60
2013,09,11,08,20,16.70
2013,09,11,08,21,16.90
2013,09,11,08,22,17.10
2013,09,11,08,23,17.40
2013,09,11,08,24,17.60
2013,09,11,08,25,17.90
2013,09,11,08,26,18.20
2013,09,11,08,27,18.40
2013,09,11,08,28,18.70
2013,09,11,08,29,18.90
2013,09,11,08,30,19.00
2013,09,11,08,31,19.20
2013,09,11,08,32,19.40
2013,09,11,08,33,19.70
2013,09,11,08,34,19.80
2013,09,11,08,35,19.90
2013,09,11,08,36,20.10
2013,09,11,08,37,20.20
2013,09,11,08,38,20.30
2013,09,11,08,39,20.40
2013,09,11,08,40,20.40
2013,09,11,08,41,20.50
2013,09,11,08,42,20.50
2013,09,11,08,43,20.60
2013,09,11,08,44,20.70
2013,09,11,08,45,20.80
2013,09,11,08,46,20.80
2013,09,11,08,47,20.90
2013,09,11,08,48,21.00
2013,09,11,08,49,21.10
2013,09,11,08,50,21.20
2013,09,11,08,51,21.30
2013,09,11,08,52,21.40
2013,09,11,08,53,21.60
2013,09,11,08,54,21.70
2013,09,11,08,55,21.80
2013,09,11,08,56,22.00
2013,09,11,08,57,22.10
2013,09,11,08,58,22.20
2013,09,11,08,59,22.30
2013,09,11,09,00,22.40
2013,09,11,09,01,22.50
2013,09,11,09,02,22.70
2013,09,11,09,03,22.80
2013,09,11,09,04,22.80
2013,09,11,09,05,22.90
2013,09,11,09,06,22.90
2013,09,11,09,07,23.00
2013,09,11,09,08,23.10
2013,09,11,09,09,23.10
2013,09,11,09,10,23.10
2013,09,11,09,11,23.20
2013,09,11,09,12,23.20
2013,09,11,09,13,23.20
2013,09,11,09,14,23.20
2013,09,11,09,15,23.20
2013,09,11,09,16,23.20
2013,09,11,09,17,23.30
2013,09,11,09,18,23.30
2013,09,11,09,19,23.30
2013,09,11,09,20,23.40
2013,09,11,09,21,23.50
2013,09,11,09,22,23.50
2013,09,11,09,23,23.60
2013,09,11,09,24,23.60
2013,09,11,09,25,23.70
2013,09,11,09,26,23.70
2013,09,11,09,27,23.70
2013,09,11,09,28,23.70
2013,09,11,09,29,23.80
2013,09,11,09,30,23.80
2013,09,11,09,31,23.80
2013,09,11,09,32,23.80
2013,09,11,09,33,23.80
2013,09,11,09,34,23.80
2013,09,11,09,35,23.80
2013,09,11,09,36,23.80
2013,09,11,09,37,23.80
2013,09,11,09,38,23.80
2013,09,11,09,39,23.80
2013,09,11,09,40,23.80
2013,09,11,09,41,23.80
2013,09,11,09,42,23.80
2013,09,11,09,43,23.80
2013,09,11,09,44,23.80
2013,09,11,09,45,23.80
2013,09,11,09,46,23.80
2013,09,11,09,47,23.80
2013,09,11,09,48,23.80
2013,09,11,09,49,23.80
2013,09,11,09,50,23.80
2013,09,11,09,51,23.80
2013,09,11,09,52,23.80
2013,09,11,09,53,23.90
2013,09,11,09,54,23.90
2013,09,11,09,55,23.90
2013,09,11,09,56,24.00
2013,09,11,09,57,24.00
2013,09,11,09,58,24.00
2013,09,11,09,59,24.10
2013,09,11,10,00,24.10
2013,09,11,10,01,24.10
2013,09,11,10,02,24.20
2013,09,11,10,03,24.20
2013,09,11,10,04,24.20
2013,09,11,10,05,24.20
2013,09,11,10,06,24.20
2013,09,11,10,07,24.20
2013,09,11,10,08,24.20
2013,09,11,10,09,24.10
2013,09,11,10,10,24.10
2013,09,11,10,11,24.10
2013,09,11,10,12,24.10
2013,09,11,10,13,24.10
2013,09,11,10,14,24.10
2013,09,11,10,15,24.10
2013,09,11,10,16,24.10
2013,09,11,10,17,24.10
2013,09,11,10,18,24.10
2013,09,11,10,19,24.10
2013,09,11,10,20,24.10
2013,09,11,10,21,24.10
2013,09,11,10,22,24.10
2013,09,11,10,23,24.20
2013,09,11,10,24,24.20
2013,09,11,10,25,24.20
2013,09,11,10,26,24.20
2013,09,11,10,27,24.20
2013,09,11,10,28,24.20
2013,09,11,10,29,24.30
2013,09,11,10,30,24.30
2013,09,11,10,31,24.30
2013,09,11,10,32,24.30
2013,09,11,10,33,24.30
2013,09,11,10,34,24.40
2013,09,11,10,35,24.40
2013,09,11,10,36,24.40
2013,09,11,10,37,24.40
2013,09,11,10,38,24.50
2013,09,11,10,39,24.50
2013,09,11,10,40,24.60
2013,09,11,10,41,24.60
2013,09,11,10,42,24.60
2013,09,11,10,43,24.70
2013,09,11,10,44,24.70
2013,09,11,10,45,24.70
2013,09,11,10,46,24.70
2013,09,11,10,47,24.70
2013,09,11,10,48,24.80
2013,09,11,10,49,24.80
2013,09,11,10,50,24.90
2013,09,11,10,51,24.90
2013,09,11,10,52,25.00
2013,09,11,10,53,25.10
2013,09,11,10,54,25.20
2013,09,11,10,55,25.20
2013,09,11,10,56,25.20
2013,09,11,10,57,25.30
2013,09,11,10,58,25.30
2013,09,11,10,59,25.30
2013,09,11,11,00,25.30
2013,09,11,11,01,25.30
2013,09,11,11,02,25.40
2013,09,11,11,03,25.40
2013,09,11,11,04,25.40
2013,09,11,11,05,25.50
2013,09,11,11,06,25.50
2013,09,11,11,07,25.50
2013,09,11,11,08,25.60
2013,09,11,11,09,25.60
2013,09,11,11,10,25.70
2013,09,11,11,11,25.70
2013,09,11,11,12,25.70
2013,09,11,11,13,25.70
2013,09,11,11,14,25.70
2013,09,11,11,15,25.70
2013,09,11,11,16,25.70
2013,09,11,11,17,25.60
2013,09,11,11,18,25.60
2013,09,11,11,19,25.60
2013,09,11,11,20,25.60
2013,09,11,11,21,25.60
2013,09,11,11,22,25.60
2013,09,11,11,23,25.60
2013,09,11,11,24,25.60
2013,09,11,11,25,25.60
2013,09,11,11,26,25.70
2013,09,11,11,27,25.60
2013,09,11,11,28,25.70
2013,09,11,11,29,25.70
2013,09,11,11,30,25.70
2013,09,11,11,31,25.60
2013,09,11,11,32,25.60
2013,09,11,11,33,25.70
2013,09,11,11,34,25.70
2013,09,11,11,35,25.70
2013,09,11,11,36,25.70
2013,09,11,11,37,25.70
2013,09,11,11,38,25.80
2013,09,11,11,39,25.80
2013,09,11,11,40,25.80
2013,09,11,11,41,25.80
2013,09,11,11,42,25.80
2013,09,11,11,43,25.80
2013,09,11,11,44,25.80
2013,09,11,11,45,25.80
2013,09,11,11,46,25.80
2013,09,11,11,47,25.80
2013,09,11,11,48,25.90
2013,09,11,11,49,25.90
2013,09,11,11,50,25.90
2013,09,11,11,51,26.00
2013,09,11,11,52,26.10
2013,09,11,11,53,26.10
2013,09,11,11,54,26.20
2013,09,11,11,55,26.20
2013,09,11,11,56,26.30
2013,09,11,11,57,26.30
2013,09,11,11,58,26.30
2013,09,11,11,59,26.30
2013,09,11,12,00,26.30
2013,09,11,12,01,26.30
2013,09,11,12,02,26.30
2013,09,11,12,03,26.40
2013,09,11,12,04,26.40
2013,09,11,12,05,26.40
2013,09,11,12,06,26.50
2013,09,11,12,07,26.50
2013,09,11,12,08,26.50
2013,09,11,12,09,26.60
2013,09,11,12,10,26.60
2013,09,11,12,11,26.60
2013,09,11,12,12,26.60
2013,09,11,12,13,26.70
2013,09,11,12,14,26.70
2013,09,11,12,15,26.80
2013,09,11,12,16,26.80
2013,09,11,12,17,26.80
2013,09,11,12,18,26.70
2013,09,11,12,19,26.70
2013,09,11,12,20,26.60
2013,09,11,12,21,26.60
2013,09,11,12,22,26.60
2013,09,11,12,23,26.60
2013,09,11,12,24,26.60
2013,09,11,12,25,26.70
2013,09,11,12,26,26.70
2013,09,11,12,27,26.80
2013,09,11,12,28,26.90
2013,09,11,12,29,26.90
2013,09,11,12,30,27.00
2013,09,11,12,31,27.10
2013,09,11,12,32,27.10
2013,09,11,12,33,27.20
2013,09,11,12,34,27.20
2013,09,11,12,35,27.30
2013,09,11,12,36,27.30
2013,09,11,12,37,27.30
2013,09,11,12,38,27.40
2013,09,11,12,39,27.40
2013,09,11,12,40,27.50
2013,09,11,12,41,27.60
2013,09,11,12,42,27.60
2013,09,11,12,43,27.70
2013,09,11,12,44,27.70
2013,09,11,12,45,27.80
2013,09,11,12,46,27.80
2013,09,11,12,47,27.90
2013,09,11,12,48,27.90
2013,09,11,12,49,27.90
2013,09,11,12,50,28.00
2013,09,11,12,51,28.00
2013,09,11,12,52,28.10
2013,09,11,12,53,28.10
2013,09,11,12,54,28.10
2013,09,11,12,55,28.10
2013,09,11,12,56,28.10
2013,09,11,12,57,28.10
2013,09,11,12,58,28.00
2013,09,11,12,59,27.90
2013,09,11,13,00,27.80
2013,09,11,13,01,27.80
2013,09,11,13,02,27.80
2013,09,11,13,03,27.80
2013,09,11,13,04,27.80
2013,09,11,13,05,27.80
2013,09,11,13,06,27.80
2013,09,11,13,07,27.80
2013,09,11,13,08,27.80
2013,09,11,13,09,27.80
2013,09,11,13,10,27.80
2013,09,11,13,11,27.80
2013,09,11,13,12,27.80
2013,09,11,13,13,27.80
2013,09,11,13,14,27.80
2013,09,11,13,15,27.90
2013,09,11,13,16,27.90
2013,09,11,13,17,27.90
2013,09,11,13,18,27.90
2013,09,11,13,19,28.00
2013,09,11,13,20,28.00
2013,09,11,13,21,28.00
2013,09,11,13,22,28.00
2013,09,11,13,23,28.00
2013,09,11,13,24,28.10
2013,09,11,13,25,28.10
2013,09,11,13,26,28.10
2013,09,11,13,27,28.10
2013,09,11,13,28,28.10
2013,09,11,13,29,28.10
2013,09,11,13,30,28.10
2013,09,11,13,31,28.10
2013,09,11,13,32,28.20
2013,09,11,13,33,28.20
2013,09,11,13,34,28.30
2013,09,11,13,35,28.30
2013,09,11,13,36,28.30
2013,09,11,13,37,28.30
2013,09,11,13,38,28.30
2013,09,11,13,39,28.30
2013,09,11,13,40,28.30
2013,09,11,13,41,28.30
2013,09,11,13,42,28.30
2013,09,11,13,43,28.30
2013,09,11,13,44,28.30
2013,09,11,13,45,28.30
2013,09,11,13,46,28.30
2013,09,11,13,47,28.30
2013,09,11,13,48,28.30
2013,09,11,13,49,28.30
2013,09,11,13,50,28.30
2013,09,11,13,51,28.30
2013,09,11,13,52,28.30
2013,09,11,13,53,28.40
2013,09,11,13,54,28.40
2013,09,11,13,55,28.60
2013,09,11,13,56,28.70
2013,09,11,13,57,28.80
2013,09,11,13,58,28.80
2013,09,11,13,59,28.80
2013,09,11,14,00,28.80
2013,09,11,14,01,28.80
2013,09,11,14,02,28.80
2013,09,11,14,03,28.80
2013,09,11,14,04,28.80
2013,09,11,14,05,28.90
2013,09,11,14,06,28.90
2013,09,11,14,07,28.80
2013,09,11,14,08,28.80
2013,09,11,14,09,28.80
2013,09,11,14,10,28.80
2013,09,11,14,11,28.80
2013,09,11,14,12,28.90
2013,09,11,14,13,28.90
2013,09,11,14,14,28.90
2013,09,11,14,15,28.90
2013,09,11,14,16,28.90
2013,09,11,14,17,29.00
2013,09,11,14,18,29.00
2013,09,11,14,19,29.10
2013,09,11,14,20,29.10
2013,09,11,14,21,29.20
2013,09,11,14,22,29.30
2013,09,11,14,23,29.30
2013,09,11,14,24,29.30
2013,09,11,14,25,29.30
2013,09,11,14,26,29.30
2013,09,11,14,27,29.30
2013,09,11,14,28,29.30
2013,09,11,14,29,29.40
2013,09,11,14,30,29.40
2013,09,11,14,31,29.50
2013,09,11,14,32,29.50
2013,09,11,14,33,29.60
2013,09,11,14,34,29.60
2013,09,11,14,35,29.70
2013,09,11,14,36,29.70
2013,09,11,14,37,29.80
2013,09,11,14,38,29.80
2013,09,11,14,39,29.80
2013,09,11,14,40,29.80
2013,09,11,14,41,29.80
2013,09,11,14,42,29.80
2013,09,11,14,43,29.80
2013,09,11,14,44,29.70
2013,09,11,14,45,29.60
2013,09,11,14,46,29.60
2013,09,11,14,47,29.50
2013,09,11,14,48,29.40
2013,09,11,14,49,29.30
2013,09,11,14,50,29.20
2013,09,11,14,51,29.20
2013,09,11,14,52,29.20
2013,09,11,14,53,29.20
2013,09,11,14,54,29.30
2013,09,11,14,55,29.30
2013,09,11,14,56,29.40
2013,09,11,14,57,29.40
2013,09,11,14,58,29.40
2013,09,11,14,59,29.40
2013,09,11,15,00,29.50
2013,09,11,15,01,29.50
2013,09,11,15,02,29.60
2013,09,11,15,03,29.60
2013,09,11,15,04,29.70
2013,09,11,15,05,29.70
2013,09,11,15,06,29.80
2013,09,11,15,07,29.80
2013,09,11,15,08,29.80
2013,09,11,15,09,29.90
2013,09,11,15,10,29.90
2013,09,11,15,11,30.00
2013,09,11,15,12,30.00
2013,09,11,15,13,30.10
2013,09,11,15,14,30.10
2013,09,11,15,15,30.10
2013,09,11,15,16,30.20
2013,09,11,15,17,30.20
2013,09,11,15,18,30.20
2013,09,11,15,19,30.20
2013,09,11,15,20,30.30
2013,09,11,15,21,30.30
2013,09,11,15,22,30.20
2013,09,11,15,23,30.20
2013,09,11,15,24,30.20
2013,09,11,15,25,30.10
2013,09,11,15,26,30.10
2013,09,11,15,27,30.10
2013,09,11,15,28,30.10
2013,09,11,15,29,30.00
2013,09,11,15,30,30.00
2013,09,11,15,31,30.00
2013,09,11,15,32,29.90
2013,09,11,15,33,29.90
2013,09,11,15,34,29.90
2013,09,11,15,35,29.90
2013,09,11,15,36,29.80
2013,09,11,15,37,29.80
2013,09,11,15,38,29.80
2013,09,11,15,39,29.80
2013,09,11,15,40,29.80
2013,09,11,15,41,29.80
2013,09,11,15,42,29.80
2013,09,11,15,43,29.80
2013,09,11,15,44,29.80
2013,09,11,15,45,29.80
2013,09,11,15,46,29.80
2013,09,11,15,47,29.70
2013,09,11,15,48,29.70
2013,09,11,15,49,29.70
2013,09,11,15,50,29.70
2013,09,11,15,51,29.70
2013,09,11,15,52,29.70
2013,09,11,15,53,29.70
2013,09,11,15,54,29.70
2013,09,11,15,55,29.70
2013,09,11,15,56,29.80
2013,09,11,15,57,29.80
2013,09,11,15,58,29.80
2013,09,11,15,59,29.80
2013,09,11,16,00,29.90
2013,09,11,16,01,29.90
2013,09,11,16,02,29.90
2013,09,11,16,03,29.90
2013,09,11,16,04,29.90
2013,09,11,16,05,29.90
2013,09,11,16,06,29.90
2013,09,11,16,07,29.90
2013,09,11,16,08,30.00
2013,09,11,16,09,30.00
2013,09,11,16,10,30.00
2013,09,11,16,11,30.00
2013,09,11,16,12,30.00
2013,09,11,16,13,30.00
2013,09,11,16,14,30.00
2013,09,11,16,15,30.00
2013,09,11,16,16,30.00
2013,09,11,16,17,30.00
2013,09,11,16,18,30.00
2013,09,11,16,19,30.00
2013,09,11,16,20,30.00
2013,09,11,16,21,30.00
2013,09,11,16,22,30.00
2013,09,11,16,23,30.00
2013,09,11,16,24,30.00
2013,09,11,16,25,30.00
2013,09,11,16,26,30.10
2013,09,11,16,27,30.10
2013,09,11,16,28,30.10
2013,09,11,16,29,30.10
2013,09,11,16,30,30.10
2013,09,11,16,31,30.10
2013,09,11,16,32,30.10
2013,09,11,16,33,30.10
2013,09,11,16,34,30.10
2013,09,11,16,35,30.10
2013,09,11,16,36,30.10
2013,09,11,16,37,30.10
2013,09,11,16,38,30.10
2013,09,11,16,39,30.10
2013,09,11,16,40,30.10
2013,09,11,16,41,30.00
2013,09,11,16,42,30.00
2013,09,11,16,43,30.00
2013,09,11,16,44,30.00
2013,09,11,16,45,29.90
2013,09,11,16,46,29.90
2013,09,11,16,47,29.90
2013,09,11,16,48,29.90
2013,09,11,16,49,29.90
2013,09,11,16,50,29.90
2013,09,11,16,51,29.90
2013,09,11,16,52,29.90
2013,09,11,16,53,29.90
2013,09,11,16,54,29.80
2013,09,11,16,55,29.80
2013,09,11,16,56,29.80
2013,09,11,16,57,29.80
2013,09,11,16,58,29.80
2013,09,11,16,59,29.80
2013,09,11,17,00,29.80
2013,09,11,17,01,29.80
2013,09,11,17,02,29.80
2013,09,11,17,03,29.70
2013,09,11,17,04,29.70
2013,09,11,17,05,29.70
2013,09,11,17,06,29.70
2013,09,11,17,07,29.70
2013,09,11,17,08,29.70
2013,09,11,17,09,29.60
2013,09,11,17,10,29.70
2013,09,11,17,11,29.70
2013,09,11,17,12,29.70
2013,09,11,17,13,29.70
2013,09,11,17,14,29.70
2013,09,11,17,15,29.70
2013,09,11,17,16,29.60
2013,09,11,17,17,29.70
2013,09,11,17,18,29.60
2013,09,11,17,19,29.50